This is the latest recevied weather packets stored in our database for station/object KD9JJA. If no packets are shown the sender has not sent any weather packets the latest 10 day(s).
| Time | Temp. | Humidity | Pressure | Rain* | Wind** | Luminosity | Snow |
|---|---|---|---|---|---|---|---|
| 1777829892 | 15.56° C | 48% | 1018.9 hPa | 0 mm | - | 122 W/m² | - |
| 1777829588 | 15.56° C | 54% | 1019.3 hPa | 0 mm | - | 110 W/m² | - |
| 1777829284 | 15° C | 49% | 1019.2 hPa | 0 mm | - | 115 W/m² | - |
| 1777828982 | 15° C | 54% | 1019.2 hPa | 0 mm | - | 159 W/m² | - |
| 1777828678 | 15° C | 53% | 1019.2 hPa | 0 mm | - | 92 W/m² | - |
| 1777828375 | 15° C | 56% | 1019.3 hPa | 0 mm | - | 77 W/m² | - |
| 1777828073 | 15° C | 53% | 1019.1 hPa | 0 mm | - | 87 W/m² | - |
| 1777827769 | 15.56° C | 50% | 1019.2 hPa | 0 mm | - | 94 W/m² | - |
| 1777827466 | 15.56° C | 47% | 1019.4 hPa | 0 mm | - | 129 W/m² | - |
| 1777827164 | 15.56° C | 47% | 1019.5 hPa | 0 mm | - | 91 W/m² | - |
| 1777826859 | 15° C | 47% | 1019.6 hPa | 0 mm | - | 107 W/m² | - |
| 1777826557 | 15° C | 49% | 1019.8 hPa | 0 mm | - | 150 W/m² | - |
| 1777826253 | 14.44° C | 49% | 1020 hPa | 0 mm | - | 147 W/m² | - |
| 1777825951 | 14.44° C | 49% | 1019.7 hPa | 0 mm | - | 195 W/m² | - |
| 1777825647 | 14.44° C | 48% | 1019.7 hPa | 0 mm | - | 194 W/m² | - |
| 1777825346 | 14.44° C | 51% | 1019.9 hPa | 0 mm | - | 287 W/m² | - |
| 1777825042 | 14.44° C | 47% | 1020 hPa | 0 mm | - | 214 W/m² | - |
| 1777824738 | 15° C | 47% | 1020.1 hPa | 0 mm | - | 219 W/m² | - |
| 1777824436 | 14.44° C | 49% | 1020.3 hPa | 0 mm | - | 292 W/m² | - |
| 1777824131 | 13.89° C | 51% | 1020.3 hPa | 0 mm | - | 236 W/m² | - |
| 1777823828 | 13.89° C | 54% | 1020.4 hPa | 0 mm | - | 249 W/m² | - |
| 1777823525 | 13.89° C | 54% | 1020.4 hPa | 0 mm | - | 288 W/m² | - |
| 1777823222 | 13.89° C | 50% | 1020.7 hPa | 0 mm | - | 378 W/m² | - |
| 1777822920 | 13.89° C | 51% | 1020.5 hPa | 0 mm | - | 527 W/m² | - |
| 1777822618 | 13.33° C | 51% | 1020.6 hPa | 0 mm | - | 127 W/m² | - |
* Rain latest hour (hover to see other rain measurements)
** Current wind speed in m/s (hover to see current wind gust speed)